Regional Weather Roundup
Issued by NWS

Home | Current Version | Previous Version | Text Only | Print | Product List | Glossary On
Versions: 1 2 3 4 5 6 7 8 9 10 11 12 13 14 15 16 17 18 19 20 21 22 23 24 25 26 27 28
000
ASUS42 KTBW 170316
RWRFL
FLORIDA REGIONAL WEATHER ROUNDUP
NATIONAL WEATHER SERVICE TAMPA BAY RUSKIN FL
1000 PM EST MON JAN 16 2017

NOTE: "FAIR" INDICATES FEW OR NO CLOUDS BELOW 12,000 FEET WITH NO
SIGNIFICANT WEATHER AND/OR OBSTRUCTIONS TO VISIBILITY.

FLZ001>010-012>015-112-114-115-170400-
PANHANDLE FLORIDA

CITY           SKY/WX    TMP DP  RH WIND       PRES   REMARKS
PENSACOLA      PTCLDY    67  64  90 E7        30.20S
PENSACOLA NAS  CLOUDY    69  65  86 SE8       30.19F
MILTON NAS       N/A    N/A N/A N/A MISG      30.21S
CRESTVIEW      CLOUDY    65  56  72 SE6       30.23S
DUKE FIELD     FAIR      64  56  74 SE5       30.20F
VALPARAISO     MOCLDY    66  60  81 SE7       30.21F
MARY ESTHER    PTCLDY    67  63  85 SE9       30.20S
TRI COUNTY     FAIR      59  57  93 CALM      30.25R
PANAMA CITY    FAIR      63  57  81 E6        30.23R
TYNDALL AFB    CLOUDY    64  59  82 E6        30.23R
APALACHICOLA   PTCLDY    63  62  97 E7        30.23S

STATION/POSITION SKY/WX   TEMP    WIND        PRES    WAVE   SWELL
                          AIR SEA DIR/SP/G            HT/PER HT/PER
                          (F)     (DEG/KT/KT) (MB)    (FT/S) (FT/S)
30.1N   87.6W              69 66  130/  8/  8 1022.0F   4/ 6   3/ 6
28.8N   86.0W              74 75              1022.9R   5/ 6
PANAMA CITY BEAC           68 64  120/ 14/ 18 1023.7R
TOWER C                    68     120/ 11/ 11 1024.2F
28.5N   84.5W              72 72  100/  8/  8 1023.7R   3/ 6   3/ 6

$$
FLZ011-016>038-118-127-128-134-139-239-170400-
NORTH FLORIDA

CITY           SKY/WX    TMP DP  RH WIND       PRES   REMARKS
MARIANNA       CLEAR     66  58  75 SE5       30.23S
TALLAHASSEE    PTCLDY    60  57  89 VRB3      30.24F
PERRY          CLEAR     57  54  89 CALM      30.27R
CROSS CITY     CLOUDY    64  57  77 NE3       30.26R
LAKE CITY      CLOUDY    59  57  94 CALM      30.28R
GAINESVILLE    MOCLDY    56  52  86 CALM      30.27R
MAYPORT NAS    CLOUDY    66  62  87 E7        30.28R
JACKSONVILLE   MOCLDY    61  61 100 CALM      30.28R
JAX NAS        MOCLDY    64  61  90 N7        30.29R
FERNANDINA BEA CLOUDY    64  64 100 NE5       30.27R
ST AUGUSTINE   CLEAR     63  59  87 CALM      30.28R

STATION/POSITION SKY/WX   TEMP    WIND        PRES    WAVE   SWELL
                          AIR SEA DIR/SP/G            HT/PER HT/PER
                          (F)     (DEG/KT/KT) (MB)    (FT/S) (FT/S)
SHELL POINT      NOT AVBL
KEATON BEACH               64      50/  3/  4 1024.1R
CEDAR KEY                  69      10/  3/  3 1024.3R
FERNANDINA                 63 64   10/  3/  4 1026.2R
30.7N   81.3W                 62                N/A     3/ 9   2/11
MAYPORT          NOT AVBL
31.4N   80.9W              61 59   70/  6/  6 1025.6R   3/ 5   3/ 5
ST AUGUSTINE               66 66   90/  5/  6 1025.7R

$$
FLZ040-043>046-052-053-057-058-063-144-170400-
INTERIOR CENTRAL FLORIDA

CITY           SKY/WX    TMP DP  RH WIND       PRES   REMARKS
OCALA          CLEAR     64  52  63 CALM      30.26R
THE VILLAGES     N/A     66  59  77 CALM      30.16R
LEESBURG       CLEAR     67  56  67 E6        30.25F
SANFORD        CLEAR     62  58  86 E5        30.26S
ORLANDO EXEC   CLEAR     63  57  81 E5        30.25F
ORLANDO INTL   CLEAR     64  57  78 SE5       30.26S
KISSIMMEE      CLEAR     64  60  87 SE7       30.26F
WINTER HAVEN   CLEAR     66  57  72 E6        30.26S
LAKELAND       CLEAR     66  61  82 E7        30.25S
BARTOW         FAIR      64  59  82 E7        30.25S
OKEECHOBEE     CLOUDY    61  57  88 CALM      30.25F

$$
FLZ041-047-054-059-064-141-147-170400-
EAST CENTRAL FLORIDA

CITY           SKY/WX    TMP DP  RH WIND       PRES   REMARKS
DAYTONA BEACH  CLEAR     61  61 100 CALM      30.26F
NEW SMYRNA BEA PTCLDY    68  66  94 E5        30.26F
JFK SPACE CTR  CLEAR     61  60  97 CALM      30.25F
CAPE CANAVERAL PTCLDY    62  59  88 E5        30.25S
PATRICK AFB    CLEAR     68  65  89 SE5       30.25S
MELBOURNE      CLEAR     68  62  81 SE5       30.25S
VERO BEACH     CLEAR     70  60  70 E8        30.25S
FT PIERCE      CLEAR     70  60  70 E10       30.25R
STUART         CLEAR     75  64  69 E12G17    30.26R

STATION/POSITION SKY/WX   TEMP    WIND        PRES    WAVE   SWELL
                          AIR SEA DIR/SP/G            HT/PER HT/PER
                          (F)     (DEG/KT/KT) (MB)    (FT/S) (FT/S)
TRIDENT PIER               66 68   50/  3/  3 1024.6R
28.4N   80.5W                 70                N/A     3/ 5
27.5N   80.2W                 77                N/A     3/12   2/12

$$
FLZ050-056-061-142-242-148-248-149-249-151-251-155-255-
160-260-170400-
WEST CENTRAL FLORIDA

CITY           SKY/WX    TMP DP  RH WIND       PRES   REMARKS
CRYSTAL RIVER  FAIR      63  54  72 CALM      30.24S
BROOKSVILLE    CLEAR     68  55  64 E12       30.25R
ST PETE CLEARW CLOUDY    68  62  81 E5        30.23S
TAMPA INTL     MOCLDY    73  58  59 E9        30.24R
TAMPA EXEC     CLOUDY    72  59  64 SE3       30.25S
PLANT CITY     CLEAR     68  61  77 SE6       30.27R
MACDILL AFB    CLOUDY    67  62  85 SE9       30.24R
PETER O KNIGHT CLOUDY    72  61  68 E8        30.25R
ST PETERSBURG  CLOUDY    67  62  84 E8        30.22R
SARASOTA       MOCLDY    67  60  78 E7        30.21S
VENICE         FAIR      68  61  77 E7        30.23S

STATION/POSITION SKY/WX   TEMP    WIND        PRES    WAVE   SWELL
                          AIR SEA DIR/SP/G            HT/PER HT/PER
                          (F)     (DEG/KT/KT) (MB)    (FT/S) (FT/S)
27.3N   84.2W                 77                N/A     3/ 5
CLEARWATER BEACH           68 65   30/  4/  5 1023.8R
MIDDLE TAMPA BAY           67     110/  9/  9 1024.0R
VENICE                     71 66   90/  7/  9 1023.0R

$$
FLZ066-069-070-075>078-162-262-165-265-170400-
SOUTHWEST FLORIDA AND KEYS

CITY           SKY/WX    TMP DP  RH WIND       PRES   REMARKS
PUNTA GORDA    CLEAR     63  59  87 E5        30.24R
FT MYERS       CLEAR     68  62  81 E7        30.21S
SOUTHWEST INTL CLEAR     66  61  84 E8        30.22S
NAPLES         CLEAR     67  62  84 E6        30.21S
MARATHON       MOCLDY    77  66  68 E9        30.18F
KEY WEST NAS   MOCLDY    74  67  78 E15       30.17F
KEY WEST INTL  NOT AVBL

STATION/POSITION SKY/WX   TEMP    WIND        PRES    WAVE   SWELL
                          AIR SEA DIR/SP/G            HT/PER HT/PER
                          (F)     (DEG/KT/KT) (MB)    (FT/S) (FT/S)
NAPLES                        69              1022.8F
26.0N   85.6W              75 76  110/ 16/ 19 1021.9R   5/ 6   2/ 8
DRY TORTUGAS               74      90/ 19/ 21 1021.7R
SAND KEY                   74      80/ 19/ 22 1021.7F
LONG KEY                   74 72   90/ 13/ 15 1022.7R

$$
FLZ067-068-071>074-168-172>174-170400-
SOUTHEAST FLORIDA

CITY           SKY/WX    TMP DP  RH WIND       PRES   REMARKS
W PALM BEACH   MOCLDY    74  61  63 E14       30.24S
BOCA RATON     PTCLDY    75  63  64 E12G18    30.23R
FT LAUDER-EXEC CLOUDY    74  63  68 SE9       30.23R
FT LAUDERDALE  PTCLDY    75  62  64 E12       30.22R
POMPANO BEACH  CLOUDY    76  61  59 E13       30.23R
PEMBROKE PINES CLEAR     73  61  65 E10       30.24R
OPA LOCKA      PTCLDY    73  60  63 E7        30.23S
MIAMI          PTCLDY    75  60  59 E9        30.23R
WEST KENDALL   CLEAR     69  62  78 E7        30.22S
HOMESTEAD      CLEAR     71  66  84 E7        30.21S

STATION/POSITION SKY/WX   TEMP    WIND        PRES    WAVE   SWELL
                          AIR SEA DIR/SP/G            HT/PER HT/PER
                          (F)     (DEG/KT/KT) (MB)    (FT/S) (FT/S)
PORT EVERGLADES            75     110/  6/ 11 1023.4R
VIRGINIA KEY               74 77  100/ 14/ 17 1023.8R
LAKE WORTH                 74 76  110/ 17/ 19 1023.5R
FOWEY ROCKS                75 76  100/ 23/ 24 1023.6R

$$





USA.gov is the U.S. government's official web portal to all federal, state and local government web resources and services.